Regional Weather Roundup
Issued by NWS

Home | Current Version | Previous Version | Text Only | Print | Product List | Glossary Off
Versions: 1 2 3 4 5 6 7 8 9 10 11 12 13 14 15 16 17 18 19 20 21 22 23 24 25 26 27

000
ASUS45 KCYS 161810
RWRWY

WYOMING REGIONAL WEATHER ROUNDUP
NATIONAL WEATHER SERVICE CHEYENNE WY
1100 AM MST TUE JAN 16 2018

NOTE:  "FAIR" INDICATES FEW OR NO CLOUDS BELOW 12,000 FEET
WITH NO SIGNIFICANT WEATHER AND/OR OBSTRUCTIONS TO VISIBILITY.

WYZ001-161900-
YELLOWSTONE NATIONAL PARK

CITY           SKY/WX    TMP DP  RH WIND       PRES   REMARKS
LK YELLOWSTONE   N/A      3   1  91 CALM      30.37S
6HR MIN TEMP: -14; 6HR MAX TEMP:   3;

W YELLOWSTONE  NOT AVBL

$$
WYZ002>013-054>058-071-098>099-161900-
NORTHERN WYOMING

CITY           SKY/WX    TMP DP  RH WIND       PRES   REMARKS
JACKSON        FLURRIES  12   9  85 N6        30.42F WCI   3
CODY           FAIR      28  19  69 W3        30.27F
GREYBULL       FAIR       1  -3  83 CALM      30.37F
6HR MIN TEMP: -11; 6HR MAX TEMP:   2;

WORLAND        FAIR       2   1  96 CALM      30.34F
6HR MIN TEMP: -10; 6HR MAX TEMP:   2; 6HR PCP: TRACE;

SHERIDAN       FAIR       4   0  83 CALM      30.26F
6HR MIN TEMP: -13; 6HR MAX TEMP:   4;

BUFFALO        FAIR      20   5  52 S10       30.22F WCI   9
6HR MIN TEMP:   5; 6HR MAX TEMP:  25;

GILLETTE         N/A    N/A N/A N/A MISG      30.30F
HULETT         FAIR      18   3  53 W6        30.32F WCI   9
NEWCASTLE      FAIR      16  -6  38 SE6       30.43F WCI   7

$$
WYZ014>020-022>026-101>103-161900-
CENTRAL WYOMING

CITY           SKY/WX    TMP DP  RH WIND       PRES   REMARKS
BIG PINEY      FAIR      22  14  71 CALM      30.39F
6HR MIN TEMP:  11; 6HR MAX TEMP:  23;

PINEDALE       FAIR      18  12  79 NW9       30.40S WCI   6
DUBOIS         FAIR      32   3  29 NW9       30.26F WCI  24
LANDER         CLOUDY    18  15  88 CALM      30.35F
6HR MIN TEMP:   9; 6HR MAX TEMP:  18;

RIVERTON       CLOUDY    17   9  70 CALM      30.36F
6HR MIN TEMP:   5; 6HR MAX TEMP:  17;

CASPER         FAIR     N/A N/A N/A MISG      30.33F
DOUGLAS        FAIR       9  -1  64 CALM      30.38F
6HR MIN TEMP:  -9; 6HR MAX TEMP:  10;


$$
WYZ021-027>030-104>119-161900-
SOUTHERN WYOMING

CITY           SKY/WX    TMP DP  RH WIND       PRES   REMARKS
EVANSTON       FAIR      23  14  68 E7        30.35F WCI  15
6HR MIN TEMP:  10; 6HR MAX TEMP:  23;

FORT BRIDGER   FAIR      21  20  96 MISG      30.41F
ROCK SPRINGS   FAIR      17   5  59 SW3       30.39F
6HR MIN TEMP:   4; 6HR MAX TEMP:  17;

DIXON            N/A     22  -2  35 CALM      30.44F
RAWLINS        FAIR      22   1  40 S3        30.39F
6HR MIN TEMP:  -3; 6HR MAX TEMP:  22;

SARATOGA       FAIR      27  -6  24 S10G18    30.39F WCI  17
LARAMIE        FAIR      23  -5  29 S3        30.33F
6HR MIN TEMP:  -5; 6HR MAX TEMP:  23;

CHEYENNE       FAIR      25   2  37 S7        30.35F WCI  17
6HR MIN TEMP:  -3; 6HR MAX TEMP:  25;

TORRINGTON     FAIR       8   0  69 VRB3      30.45F
6HR MIN TEMP:  -9; 6HR MAX TEMP:   8;


$$




USA.gov is the U.S. government's official web portal to all federal, state and local government web resources and services.